Wolke Sonne

Wetter Ammerndorf

Gehe zu: Roßtal

Tageswerte vom Donnerstag, 03.03.2022

Optionen

Tag:
Erweitert:

Alle Werte vom Donnerstag, 03.03.2022

Einen Moment bitte, die Daten werden aufbereitet...

UhrzeitTemperaturBoden 10cmBoden 20cmFeuchteLuftdruckNiederschlagEvapotranspirationWindWindböenWindrichtungSolarstrahlungUV-IndexSonne?Uhrzeit
Diagramm IconDiagramm IconDiagramm IconDiagramm IconDiagramm IconDiagramm IconDiagramm IconDiagramm IconDiagramm IconDiagramm IconDiagramm IconDiagramm IconDiagramm Icon
00:00-4,9 °C 2,2 °C 3,3 °C 88 % 1024,6 hPa 0,0 mm - 0,0 km/h 0,0 km/h ONO 0,0 W/qm 0,0 nein 00:00
00:05-5,0 °C 2,2 °C 3,3 °C 88 % 1024,8 hPa 0,0 mm 0,0 mm 0,0 km/h 0,0 km/h ONO 0,0 W/qm 0,0 nein 00:05
00:10-5,0 °C 2,2 °C 3,3 °C 88 % 1024,7 hPa 0,0 mm 0,0 mm 0,0 km/h 0,0 km/h ONO 0,0 W/qm 0,0 nein 00:10
00:15-5,1 °C 2,2 °C 3,3 °C 88 % 1024,8 hPa 0,0 mm - 0,0 km/h 0,0 km/h ONO 0,0 W/qm 0,0 nein 00:15
00:20-5,1 °C 2,2 °C 3,3 °C 88 % 1024,6 hPa 0,0 mm - 0,0 km/h 0,0 km/h ONO 0,0 W/qm 0,0 nein 00:20
00:25-5,3 °C 2,2 °C 3,3 °C 88 % 1024,6 hPa 0,0 mm - 0,0 km/h 0,0 km/h ONO 0,0 W/qm 0,0 nein 00:25
00:30-5,2 °C 2,2 °C 3,3 °C 88 % 1024,6 hPa 0,0 mm - 0,0 km/h 0,0 km/h ONO 0,0 W/qm 0,0 nein 00:30
00:35-5,2 °C 2,2 °C 3,3 °C 88 % 1024,6 hPa 0,0 mm - 0,0 km/h 0,0 km/h ONO 0,0 W/qm 0,0 nein 00:35
00:40-5,4 °C 2,2 °C 3,3 °C 88 % 1024,5 hPa 0,0 mm - 0,0 km/h 0,0 km/h ONO 0,0 W/qm 0,0 nein 00:40
00:45-5,4 °C 2,2 °C 3,3 °C 88 % 1024,6 hPa 0,0 mm - 0,0 km/h 0,0 km/h ONO 0,0 W/qm 0,0 nein 00:45
00:50-5,4 °C 2,2 °C 3,3 °C 89 % 1024,7 hPa 0,0 mm - 0,0 km/h 0,0 km/h ONO 0,0 W/qm 0,0 nein 00:50
00:55-5,3 °C 2,2 °C 3,3 °C 89 % 1024,6 hPa 0,0 mm - 0,0 km/h 0,0 km/h ONO 0,0 W/qm 0,0 nein 00:55
01:00-5,7 °C 2,2 °C 3,3 °C 88 % 1024,6 hPa 0,0 mm - 0,0 km/h 0,0 km/h ONO 0,0 W/qm 0,0 nein 01:00
01:05-5,7 °C 2,2 °C 3,3 °C 89 % 1024,7 hPa 0,0 mm 0,0 mm 0,0 km/h 0,0 km/h ONO 0,0 W/qm 0,0 nein 01:05
01:10-5,7 °C 2,2 °C 3,3 °C 89 % 1024,7 hPa 0,0 mm 0,0 mm 0,0 km/h 0,0 km/h ONO 0,0 W/qm 0,0 nein 01:10
01:15-5,8 °C 2,2 °C 3,3 °C 89 % 1024,7 hPa 0,0 mm - 0,0 km/h 0,0 km/h ONO 0,0 W/qm 0,0 nein 01:15
01:20-5,7 °C 2,2 °C 3,3 °C 89 % 1024,7 hPa 0,0 mm - 0,0 km/h 0,0 km/h ONO 0,0 W/qm 0,0 nein 01:20
01:25-5,7 °C 2,2 °C 3,3 °C 89 % 1024,7 hPa 0,0 mm - 0,0 km/h 0,0 km/h ONO 0,0 W/qm 0,0 nein 01:25
01:30-5,7 °C 2,2 °C 3,3 °C 89 % 1024,7 hPa 0,0 mm - 0,0 km/h 0,0 km/h ONO 0,0 W/qm 0,0 nein 01:30
01:35-5,7 °C 2,2 °C 3,3 °C 89 % 1024,6 hPa 0,0 mm - 0,0 km/h 0,0 km/h ONO 0,0 W/qm 0,0 nein 01:35
01:40-5,9 °C 2,2 °C 3,3 °C 89 % 1024,6 hPa 0,0 mm - 0,0 km/h 0,0 km/h ONO 0,0 W/qm 0,0 nein 01:40
01:45-5,9 °C 2,2 °C 3,3 °C 89 % 1024,6 hPa 0,0 mm - 0,0 km/h 0,0 km/h ONO 0,0 W/qm 0,0 nein 01:45
01:50-6,0 °C 2,2 °C 3,3 °C 89 % 1024,7 hPa 0,0 mm - 0,0 km/h 0,0 km/h ONO 0,0 W/qm 0,0 nein 01:50
01:55-5,9 °C 2,2 °C 3,3 °C 90 % 1024,7 hPa 0,0 mm - 0,0 km/h 0,0 km/h ONO 0,0 W/qm 0,0 nein 01:55
UhrzeitTemperaturBoden 10cmBoden 20cmFeuchteLuftdruckNiederschlagEvapotranspirationWindWindböenWindrichtungSolarstrahlungUV-IndexSonne?Uhrzeit
02:00-6,0 °C 2,2 °C 3,3 °C 89 % 1024,7 hPa 0,0 mm - 0,0 km/h 0,0 km/h ONO 0,0 W/qm 0,0 nein 02:00
02:05-6,2 °C 2,2 °C 3,3 °C 89 % 1024,8 hPa 0,0 mm 0,0 mm 0,0 km/h 0,0 km/h ONO 0,0 W/qm 0,0 nein 02:05
02:10-6,1 °C 2,2 °C 3,3 °C 90 % 1024,6 hPa 0,0 mm 0,0 mm 0,0 km/h 0,0 km/h ONO 0,0 W/qm 0,0 nein 02:10
02:15-6,1 °C 2,2 °C 3,3 °C 90 % 1024,6 hPa 0,0 mm - 0,0 km/h 0,0 km/h ONO 0,0 W/qm 0,0 nein 02:15
02:20-6,1 °C 2,2 °C 3,3 °C 90 % 1024,6 hPa 0,0 mm - 0,0 km/h 0,0 km/h ONO 0,0 W/qm 0,0 nein 02:20
02:25-6,1 °C 2,2 °C 3,3 °C 90 % 1024,6 hPa 0,0 mm - 0,0 km/h 0,0 km/h ONO 0,0 W/qm 0,0 nein 02:25
02:30-6,2 °C 2,2 °C 3,3 °C 90 % 1024,6 hPa 0,0 mm - 0,0 km/h 0,0 km/h ONO 0,0 W/qm 0,0 nein 02:30
02:35-6,2 °C 2,2 °C 3,3 °C 90 % 1024,5 hPa 0,0 mm - 0,0 km/h 0,0 km/h ONO 0,0 W/qm 0,0 nein 02:35
02:40-6,2 °C 2,2 °C 3,3 °C 90 % 1024,5 hPa 0,0 mm - 0,0 km/h 0,0 km/h ONO 0,0 W/qm 0,0 nein 02:40
02:45-6,3 °C 2,2 °C 3,3 °C 90 % 1024,6 hPa 0,0 mm - 0,0 km/h 0,0 km/h ONO 0,0 W/qm 0,0 nein 02:45
02:50-6,3 °C 2,2 °C 3,3 °C 90 % 1024,5 hPa 0,0 mm - 0,0 km/h 0,0 km/h ONO 0,0 W/qm 0,0 nein 02:50
02:55-6,4 °C 2,2 °C 3,3 °C 90 % 1024,4 hPa 0,0 mm - 0,0 km/h 0,0 km/h ONO 0,0 W/qm 0,0 nein 02:55
03:00-6,4 °C 2,2 °C 3,3 °C 90 % 1024,4 hPa 0,0 mm - 0,0 km/h 0,0 km/h ONO 0,0 W/qm 0,0 nein 03:00
03:05-6,4 °C 2,2 °C 3,3 °C 90 % 1024,4 hPa 0,0 mm 0,0 mm 0,0 km/h 0,0 km/h ONO 0,0 W/qm 0,0 nein 03:05
03:10-6,5 °C 2,2 °C 3,3 °C 90 % 1024,4 hPa 0,0 mm 0,0 mm 0,0 km/h 0,0 km/h ONO 0,0 W/qm 0,0 nein 03:10
03:15-6,6 °C 2,2 °C 3,3 °C 90 % 1024,4 hPa 0,0 mm - 0,0 km/h 0,0 km/h ONO 0,0 W/qm 0,0 nein 03:15
03:20-6,6 °C 2,2 °C 3,3 °C 90 % 1024,4 hPa 0,0 mm - 0,0 km/h 0,0 km/h ONO 0,0 W/qm 0,0 nein 03:20
03:25-6,7 °C 2,2 °C 3,3 °C 90 % 1024,4 hPa 0,0 mm - 0,0 km/h 0,0 km/h ONO 0,0 W/qm 0,0 nein 03:25
03:30-6,6 °C 2,2 °C 3,3 °C 90 % 1024,4 hPa 0,0 mm - 0,0 km/h 0,0 km/h ONO 0,0 W/qm 0,0 nein 03:30
03:35-6,7 °C 2,2 °C 3,3 °C 90 % 1024,3 hPa 0,0 mm - 0,0 km/h 0,0 km/h ONO 0,0 W/qm 0,0 nein 03:35
03:40-6,7 °C 2,2 °C 3,3 °C 90 % 1024,4 hPa 0,0 mm - 0,0 km/h 0,0 km/h ONO 0,0 W/qm 0,0 nein 03:40
03:45-6,7 °C 2,2 °C 3,3 °C 90 % 1024,3 hPa 0,0 mm - 0,0 km/h 0,0 km/h ONO 0,0 W/qm 0,0 nein 03:45
03:50-6,8 °C 2,2 °C 3,3 °C 90 % 1024,2 hPa 0,0 mm - 0,0 km/h 0,0 km/h ONO 0,0 W/qm 0,0 nein 03:50
03:55-6,8 °C 2,2 °C 3,3 °C 90 % 1024,0 hPa 0,0 mm - 0,0 km/h 0,0 km/h ONO 0,0 W/qm 0,0 nein 03:55
UhrzeitTemperaturBoden 10cmBoden 20cmFeuchteLuftdruckNiederschlagEvapotranspirationWindWindböenWindrichtungSolarstrahlungUV-IndexSonne?Uhrzeit
04:00-6,9 °C 2,2 °C 3,3 °C 90 % 1024,0 hPa 0,0 mm - 0,0 km/h 0,0 km/h ONO 0,0 W/qm 0,0 nein 04:00
04:05-6,8 °C 2,2 °C 3,3 °C 90 % 1024,0 hPa 0,0 mm 0,0 mm 0,0 km/h 0,0 km/h ONO 0,0 W/qm 0,0 nein 04:05
04:10-6,8 °C 2,2 °C 3,3 °C 90 % 1024,0 hPa 0,0 mm 0,0 mm 0,0 km/h 0,0 km/h ONO 0,0 W/qm 0,0 nein 04:10
04:15-6,8 °C 1,7 °C 2,8 °C 90 % 1024,1 hPa 0,0 mm - 0,0 km/h 0,0 km/h ONO 0,0 W/qm 0,0 nein 04:15
04:20-6,8 °C 1,7 °C 2,8 °C 91 % 1024,1 hPa 0,0 mm - 0,0 km/h 0,0 km/h ONO 0,0 W/qm 0,0 nein 04:20
04:25-6,9 °C 1,7 °C 2,8 °C 90 % 1024,1 hPa 0,0 mm - 0,0 km/h 0,0 km/h ONO 0,0 W/qm 0,0 nein 04:25
04:30-7,0 °C 1,7 °C 2,8 °C 90 % 1024,1 hPa 0,0 mm - 0,0 km/h 0,0 km/h ONO 0,0 W/qm 0,0 nein 04:30
04:35-6,9 °C 1,7 °C 2,8 °C 91 % 1024,1 hPa 0,0 mm - 0,0 km/h 0,0 km/h ONO 0,0 W/qm 0,0 nein 04:35
04:40-7,1 °C 1,7 °C 2,8 °C 91 % 1024,2 hPa 0,0 mm - 0,0 km/h 0,0 km/h ONO 0,0 W/qm 0,0 nein 04:40
04:45-7,0 °C 1,7 °C 2,8 °C 91 % 1024,1 hPa 0,0 mm - 0,0 km/h 0,0 km/h ONO 0,0 W/qm 0,0 nein 04:45
04:50-7,1 °C 1,7 °C 2,8 °C 91 % 1024,1 hPa 0,0 mm - 0,0 km/h 0,0 km/h ONO 0,0 W/qm 0,0 nein 04:50
04:55-7,1 °C 1,7 °C 2,8 °C 91 % 1024,1 hPa 0,0 mm - 0,0 km/h 0,0 km/h ONO 0,0 W/qm 0,0 nein 04:55
05:00-7,2 °C 1,7 °C 2,8 °C 91 % 1024,0 hPa 0,0 mm - 0,0 km/h 0,0 km/h ONO 0,0 W/qm 0,0 nein 05:00
05:05-7,3 °C 1,7 °C 2,8 °C 91 % 1024,0 hPa 0,0 mm 0,0 mm 0,0 km/h 0,0 km/h ONO 0,0 W/qm 0,0 nein 05:05
05:10-7,3 °C 1,7 °C 2,8 °C 91 % 1024,0 hPa 0,0 mm 0,0 mm 0,0 km/h 0,0 km/h ONO 0,0 W/qm 0,0 nein 05:10
05:15-7,3 °C 1,7 °C 2,8 °C 91 % 1023,9 hPa 0,0 mm - 0,0 km/h 0,0 km/h ONO 0,0 W/qm 0,0 nein 05:15
05:20-7,3 °C 1,7 °C 2,8 °C 91 % 1023,8 hPa 0,0 mm - 0,0 km/h 0,0 km/h ONO 0,0 W/qm 0,0 nein 05:20
05:25-7,4 °C 1,7 °C 2,8 °C 91 % 1023,7 hPa 0,0 mm - 0,0 km/h 0,0 km/h ONO 0,0 W/qm 0,0 nein 05:25
05:30-7,4 °C 1,7 °C 2,8 °C 91 % 1023,6 hPa 0,0 mm - 0,0 km/h 0,0 km/h ONO 0,0 W/qm 0,0 nein 05:30
05:35-7,5 °C 1,7 °C 2,8 °C 91 % 1023,5 hPa 0,0 mm - 0,0 km/h 0,0 km/h ONO 0,0 W/qm 0,0 nein 05:35
05:40-7,5 °C 1,7 °C 2,8 °C 91 % 1023,4 hPa 0,0 mm - 0,0 km/h 0,0 km/h ONO 0,0 W/qm 0,0 nein 05:40
05:45-7,6 °C 1,7 °C 2,8 °C 91 % 1023,2 hPa 0,0 mm - 0,0 km/h 0,0 km/h ONO 0,0 W/qm 0,0 nein 05:45
05:50-7,6 °C 1,7 °C 2,8 °C 91 % 1023,1 hPa 0,0 mm - 0,0 km/h 0,0 km/h ONO 0,0 W/qm 0,0 nein 05:50
05:55-7,6 °C 1,7 °C 2,8 °C 91 % 1023,0 hPa 0,0 mm - 0,0 km/h 0,0 km/h ONO 0,0 W/qm 0,0 nein 05:55
UhrzeitTemperaturBoden 10cmBoden 20cmFeuchteLuftdruckNiederschlagEvapotranspirationWindWindböenWindrichtungSolarstrahlungUV-IndexSonne?Uhrzeit
06:00-7,4 °C 1,7 °C 2,8 °C 91 % 1022,8 hPa 0,0 mm - 0,0 km/h 0,0 km/h ONO 0,0 W/qm 0,0 nein 06:00
06:05-7,3 °C 1,7 °C 2,8 °C 91 % 1022,7 hPa 0,0 mm 0,0 mm 0,0 km/h 0,0 km/h ONO 0,0 W/qm 0,0 nein 06:05
06:10-7,2 °C 1,7 °C 2,8 °C 91 % 1022,5 hPa 0,0 mm 0,0 mm 0,0 km/h 1,4 km/h ONO 0,0 W/qm 0,0 nein 06:10
06:15-7,4 °C 1,7 °C 2,8 °C 91 % 1022,3 hPa 0,0 mm - 0,0 km/h 1,4 km/h ONO 0,0 W/qm 0,0 nein 06:15
06:20-7,4 °C 1,7 °C 2,8 °C 91 % 1022,4 hPa 0,0 mm - 0,0 km/h 1,4 km/h ONO 0,0 W/qm 0,0 nein 06:20
06:25-7,1 °C 1,7 °C 2,8 °C 91 % 1022,8 hPa 0,0 mm - 1,4 km/h 0,0 km/h NNO 0,0 W/qm 0,0 nein 06:25
06:30-6,8 °C 1,7 °C 2,8 °C 92 % 1022,7 hPa 0,0 mm - 1,4 km/h 6,5 km/h NNO 0,0 W/qm 0,0 nein 06:30
06:35-6,7 °C 1,7 °C 2,8 °C 91 % 1023,0 hPa 0,0 mm - 0,0 km/h 6,5 km/h NNO 0,0 W/qm 0,0 nein 06:35
06:40-6,6 °C 1,7 °C 2,8 °C 92 % 1022,9 hPa 0,0 mm - 1,4 km/h 6,5 km/h NNO 0,0 W/qm 0,0 nein 06:40
06:45-6,6 °C 1,7 °C 2,8 °C 92 % 1022,8 hPa 0,0 mm - 0,0 km/h 4,7 km/h NNO 0,0 W/qm 0,0 nein 06:45
06:50-6,6 °C 1,7 °C 2,8 °C 91 % 1022,8 hPa 0,0 mm - 0,0 km/h 4,7 km/h NNO 0,0 W/qm 0,0 nein 06:50
06:55-6,8 °C 1,7 °C 2,8 °C 91 % 1023,0 hPa 0,0 mm - 0,0 km/h 4,7 km/h NNO 5,0 W/qm 0,0 nein 06:55
07:00-6,8 °C 1,7 °C 2,8 °C 91 % 1022,8 hPa 0,0 mm - 1,4 km/h 3,2 km/h SSW 7,0 W/qm 0,0 nein 07:00
07:05-6,8 °C 1,7 °C 2,8 °C 91 % 1023,0 hPa 0,0 mm 0,0 mm 1,4 km/h 6,5 km/h SSW 11,0 W/qm 0,0 nein 07:05
07:10-6,9 °C 1,7 °C 2,8 °C 91 % 1023,0 hPa 0,0 mm 0,0 mm 0,0 km/h 6,5 km/h SSW 14,0 W/qm 0,0 nein 07:10
07:15-6,9 °C 1,7 °C 2,8 °C 91 % 1023,0 hPa 0,0 mm - 0,0 km/h 6,5 km/h SSW 16,0 W/qm 0,0 nein 07:15
07:20-7,0 °C 1,7 °C 2,8 °C 91 % 1023,1 hPa 0,0 mm - 0,0 km/h 4,7 km/h SSW 16,0 W/qm 0,0 nein 07:20
07:25-7,0 °C 1,7 °C 2,8 °C 91 % 1023,2 hPa 0,0 mm - 0,0 km/h 0,0 km/h SSW 18,0 W/qm 0,0 nein 07:25
07:30-6,9 °C 1,7 °C 2,8 °C 91 % 1023,1 hPa 0,0 mm - 0,0 km/h 0,0 km/h SSW 18,0 W/qm 0,0 nein 07:30
07:35-7,0 °C 1,7 °C 2,8 °C 91 % 1023,2 hPa 0,0 mm - 0,0 km/h 0,0 km/h SSW 21,0 W/qm 0,0 nein 07:35
07:40-6,9 °C 1,7 °C 2,8 °C 91 % 1023,2 hPa 0,0 mm - 0,0 km/h 0,0 km/h SSW 23,0 W/qm 0,0 nein 07:40
07:45-6,7 °C 1,7 °C 2,8 °C 91 % 1023,2 hPa 0,0 mm - 0,0 km/h 0,0 km/h SSW 25,0 W/qm 0,0 nein 07:45
07:50-6,7 °C 1,7 °C 2,8 °C 91 % 1023,2 hPa 0,0 mm - 0,0 km/h 0,0 km/h SSW 26,0 W/qm 0,0 nein 07:50
07:55-6,8 °C 1,7 °C 2,8 °C 91 % 1023,1 hPa 0,0 mm - 0,0 km/h 0,0 km/h SSW 28,0 W/qm 0,0 nein 07:55
UhrzeitTemperaturBoden 10cmBoden 20cmFeuchteLuftdruckNiederschlagEvapotranspirationWindWindböenWindrichtungSolarstrahlungUV-IndexSonne?Uhrzeit
08:00-6,6 °C 1,7 °C 2,8 °C 91 % 1023,0 hPa 0,0 mm - 0,0 km/h 0,0 km/h SSW 30,0 W/qm 0,0 nein 08:00
08:05-6,3 °C 1,7 °C 2,8 °C 91 % 1023,1 hPa 0,0 mm 0,0 mm 0,0 km/h 0,0 km/h SSW 33,0 W/qm 0,0 nein 08:05
08:10-6,2 °C 1,7 °C 2,8 °C 91 % 1023,1 hPa 0,0 mm 0,0 mm 0,0 km/h 0,0 km/h SSW 39,0 W/qm 0,0 nein 08:10
08:15-6,1 °C 1,7 °C 2,8 °C 91 % 1022,9 hPa 0,0 mm - 0,0 km/h 0,0 km/h SSW 40,0 W/qm 0,0 nein 08:15
08:20-5,8 °C 1,7 °C 2,8 °C 91 % 1022,8 hPa 0,0 mm - 0,0 km/h 0,0 km/h SSW 42,0 W/qm 0,0 nein 08:20
08:25-5,6 °C 1,7 °C 2,8 °C 91 % 1022,9 hPa 0,0 mm - 0,0 km/h 0,0 km/h SSW 42,0 W/qm 0,0 nein 08:25
08:30-5,6 °C 1,7 °C 2,8 °C 91 % 1023,0 hPa 0,0 mm - 0,0 km/h 0,0 km/h SSW 44,0 W/qm 0,0 nein 08:30
08:35-5,6 °C 1,7 °C 2,8 °C 91 % 1023,0 hPa 0,0 mm - 0,0 km/h 0,0 km/h SSW 46,0 W/qm 0,0 nein 08:35
08:40-5,3 °C 1,7 °C 2,8 °C 91 % 1022,9 hPa 0,0 mm - 0,0 km/h 0,0 km/h SSW 46,0 W/qm 0,0 nein 08:40
08:45-5,1 °C 1,7 °C 2,8 °C 91 % 1022,9 hPa 0,0 mm - 0,0 km/h 0,0 km/h SSW 171,0 W/qm 0,0 nein 08:45
08:50-4,7 °C 1,7 °C 2,8 °C 91 % 1022,7 hPa 0,0 mm - 0,0 km/h 0,0 km/h SSW 227,0 W/qm 0,0 ja 08:50
08:55-4,2 °C 1,7 °C 2,8 °C 91 % 1022,8 hPa 0,0 mm - 0,0 km/h 0,0 km/h SSW 295,0 W/qm 0,0 ja 08:55
09:00-3,9 °C 1,7 °C 2,8 °C 90 % 1022,7 hPa 0,0 mm - 0,0 km/h 0,0 km/h SSW 285,0 W/qm 0,5 ja 09:00
09:05-3,7 °C 1,7 °C 2,8 °C 90 % 1022,8 hPa 0,0 mm 0,0 mm 0,0 km/h 0,0 km/h SSW 301,0 W/qm 0,5 ja 09:05
09:10-3,4 °C 1,7 °C 2,8 °C 90 % 1022,8 hPa 0,0 mm 0,0 mm 0,0 km/h 0,0 km/h SSW 311,0 W/qm 0,6 ja 09:10
09:15-3,0 °C 1,7 °C 2,8 °C 89 % 1022,7 hPa 0,0 mm - 1,4 km/h 0,0 km/h S 327,0 W/qm 0,6 ja 09:15
09:20-2,7 °C 1,7 °C 2,8 °C 87 % 1022,7 hPa 0,0 mm - 1,4 km/h 4,7 km/h S 343,0 W/qm 0,6 ja 09:20
09:25-2,2 °C 1,7 °C 2,8 °C 86 % 1022,7 hPa 0,0 mm - 1,4 km/h 4,7 km/h S 355,0 W/qm 0,7 ja 09:25
09:30-1,8 °C 1,7 °C 2,8 °C 85 % 1022,5 hPa 0,0 mm - 1,4 km/h 4,7 km/h S 369,0 W/qm 0,7 ja 09:30
09:35-1,7 °C 1,7 °C 2,8 °C 83 % 1022,5 hPa 0,0 mm - 1,4 km/h 4,7 km/h S 378,0 W/qm 0,8 ja 09:35
09:40-1,3 °C 1,7 °C 2,8 °C 82 % 1022,4 hPa 0,0 mm - 1,4 km/h 3,2 km/h S 388,0 W/qm 0,8 ja 09:40
09:45-1,0 °C 1,7 °C 2,8 °C 81 % 1022,4 hPa 0,0 mm - 0,0 km/h 4,7 km/h S 399,0 W/qm 0,8 ja 09:45
09:50-0,6 °C 1,7 °C 2,8 °C 79 % 1022,2 hPa 0,0 mm - 1,4 km/h 4,7 km/h S 410,0 W/qm 0,9 ja 09:50
09:55-0,2 °C 1,7 °C 2,8 °C 77 % 1022,0 hPa 0,0 mm - 1,4 km/h 4,7 km/h SSW 420,0 W/qm 0,9 ja 09:55
UhrzeitTemperaturBoden 10cmBoden 20cmFeuchteLuftdruckNiederschlagEvapotranspirationWindWindböenWindrichtungSolarstrahlungUV-IndexSonne?Uhrzeit
10:000,2 °C 1,7 °C 2,8 °C 76 % 1022,0 hPa 0,0 mm - 1,4 km/h 4,7 km/h S 431,0 W/qm 1,0 ja 10:00
10:050,3 °C 1,7 °C 2,8 °C 74 % 1021,9 hPa 0,0 mm 0,1 mm 1,4 km/h 6,5 km/h SSW 438,0 W/qm 1,0 ja 10:05
10:100,3 °C 1,7 °C 2,8 °C 73 % 1021,9 hPa 0,0 mm 0,1 mm 1,4 km/h 6,5 km/h S 446,0 W/qm 1,1 ja 10:10
10:150,8 °C 1,7 °C 2,8 °C 72 % 1021,6 hPa 0,0 mm - 1,4 km/h 6,5 km/h SSO 455,0 W/qm 1,1 ja 10:15
10:201,1 °C 1,7 °C 2,8 °C 70 % 1021,5 hPa 0,0 mm - 1,4 km/h 4,7 km/h S 461,0 W/qm 1,1 ja 10:20
10:251,0 °C 1,7 °C 2,8 °C 70 % 1021,6 hPa 0,0 mm - 1,4 km/h 4,7 km/h S 469,0 W/qm 1,2 ja 10:25
10:301,1 °C 1,7 °C 2,8 °C 72 % 1021,4 hPa 0,0 mm - 0,0 km/h 4,7 km/h S 478,0 W/qm 1,2 ja 10:30
10:351,4 °C 1,7 °C 2,8 °C 72 % 1021,3 hPa 0,0 mm - 0,0 km/h 4,7 km/h S 487,0 W/qm 1,2 ja 10:35
10:401,8 °C 1,7 °C 2,8 °C 69 % 1021,0 hPa 0,0 mm - 1,4 km/h 4,7 km/h S 494,0 W/qm 1,3 ja 10:40
10:452,1 °C 1,7 °C 2,8 °C 68 % 1021,0 hPa 0,0 mm - 0,0 km/h 4,7 km/h SO 503,0 W/qm 1,3 ja 10:45
10:502,5 °C 1,7 °C 2,8 °C 67 % 1020,9 hPa 0,0 mm - 0,0 km/h 4,7 km/h SSO 512,0 W/qm 1,3 ja 10:50
10:552,6 °C 1,7 °C 2,8 °C 68 % 1020,8 hPa 0,0 mm - 1,4 km/h 3,2 km/h ONO 519,0 W/qm 1,4 ja 10:55
11:003,1 °C 1,7 °C 2,8 °C 66 % 1020,7 hPa 0,0 mm - 1,4 km/h 4,7 km/h SO 524,0 W/qm 1,4 ja 11:00
11:053,8 °C 1,7 °C 2,8 °C 63 % 1020,5 hPa 0,0 mm 0,3 mm 1,4 km/h 4,7 km/h S 533,0 W/qm 1,4 ja 11:05
11:103,8 °C 1,7 °C 2,8 °C 63 % 1020,5 hPa 0,0 mm 0,3 mm 1,4 km/h 4,7 km/h S 541,0 W/qm 1,5 ja 11:10
11:153,9 °C 1,7 °C 2,8 °C 62 % 1020,5 hPa 0,0 mm - 0,0 km/h 4,7 km/h S 547,0 W/qm 1,5 ja 11:15
11:204,4 °C 1,7 °C 2,8 °C 61 % 1020,3 hPa 0,0 mm - 0,0 km/h 4,7 km/h SSO 552,0 W/qm 1,5 ja 11:20
11:254,6 °C 1,7 °C 2,8 °C 59 % 1020,2 hPa 0,0 mm - 1,4 km/h 3,2 km/h SSO 557,0 W/qm 1,5 ja 11:25
11:305,0 °C 1,7 °C 2,8 °C 61 % 1020,1 hPa 0,0 mm - 1,4 km/h 4,7 km/h S 563,0 W/qm 1,6 ja 11:30
11:355,1 °C 1,7 °C 2,8 °C 59 % 1020,2 hPa 0,0 mm - 3,2 km/h 7,9 km/h SSW 566,0 W/qm 1,6 ja 11:35
11:405,0 °C 1,7 °C 2,8 °C 58 % 1020,2 hPa 0,0 mm - 3,2 km/h 7,9 km/h SSO 566,0 W/qm 1,6 ja 11:40
11:455,0 °C 1,7 °C 2,8 °C 60 % 1020,2 hPa 0,0 mm - 3,2 km/h 7,9 km/h NNO 570,0 W/qm 1,6 ja 11:45
11:505,0 °C 1,7 °C 2,8 °C 56 % 1020,1 hPa 0,0 mm - 3,2 km/h 6,5 km/h NO 571,0 W/qm 1,6 ja 11:50
11:555,3 °C 1,7 °C 2,8 °C 58 % 1020,2 hPa 0,0 mm - 6,5 km/h 9,7 km/h NO 570,0 W/qm 1,6 ja 11:55
UhrzeitTemperaturBoden 10cmBoden 20cmFeuchteLuftdruckNiederschlagEvapotranspirationWindWindböenWindrichtungSolarstrahlungUV-IndexSonne?Uhrzeit
12:005,3 °C 1,7 °C 2,8 °C 57 % 1020,2 hPa 0,0 mm - 9,7 km/h 14,4 km/h NO 573,0 W/qm 1,6 ja 12:00
12:055,4 °C 1,7 °C 2,8 °C 54 % 1020,3 hPa 0,0 mm 0,5 mm 9,7 km/h 14,4 km/h NO 580,0 W/qm 1,6 ja 12:05
12:105,3 °C 1,7 °C 2,8 °C 54 % 1020,3 hPa 0,0 mm 0,5 mm 7,9 km/h 14,4 km/h NO 584,0 W/qm 1,6 ja 12:10
12:155,5 °C 1,7 °C 2,8 °C 56 % 1020,2 hPa 0,0 mm - 7,9 km/h 14,4 km/h O 584,0 W/qm 1,6 ja 12:15
12:205,6 °C 1,7 °C 2,8 °C 54 % 1020,1 hPa 0,0 mm - 6,5 km/h 16,2 km/h N 584,0 W/qm 1,6 ja 12:20
12:255,6 °C 1,7 °C 2,8 °C 53 % 1020,0 hPa 0,0 mm - 7,9 km/h 16,2 km/h NNO 589,0 W/qm 1,6 ja 12:25
12:305,7 °C 1,7 °C 2,8 °C 54 % 1020,0 hPa 0,0 mm - 7,9 km/h 16,2 km/h NO 587,0 W/qm 1,6 ja 12:30
12:355,8 °C 1,7 °C 2,8 °C 56 % 1020,0 hPa 0,0 mm - 7,9 km/h 16,2 km/h NO 585,0 W/qm 1,6 ja 12:35
12:405,9 °C 1,7 °C 2,8 °C 53 % 1019,8 hPa 0,0 mm - 7,9 km/h 16,2 km/h NO 584,0 W/qm 1,6 ja 12:40
12:456,0 °C 1,7 °C 2,8 °C 51 % 1019,8 hPa 0,0 mm - 6,5 km/h 16,2 km/h SO 582,0 W/qm 1,6 ja 12:45
12:506,1 °C 1,7 °C 2,8 °C 49 % 1019,7 hPa 0,0 mm - 4,7 km/h 16,2 km/h NO 584,0 W/qm 1,6 ja 12:50
12:556,2 °C 1,7 °C 2,8 °C 49 % 1019,7 hPa 0,0 mm - 6,5 km/h 14,4 km/h ONO 584,0 W/qm 1,6 ja 12:55
13:006,3 °C 1,7 °C 2,8 °C 50 % 1019,5 hPa 0,0 mm - 7,9 km/h 13,0 km/h ONO 584,0 W/qm 1,6 ja 13:00
13:056,4 °C 1,7 °C 2,8 °C 47 % 1019,4 hPa 0,0 mm 0,8 mm 7,9 km/h 16,2 km/h NNO 580,0 W/qm 1,6 ja 13:05
13:106,5 °C 1,7 °C 2,8 °C 46 % 1019,4 hPa 0,0 mm 0,8 mm 6,5 km/h 16,2 km/h ONO 578,0 W/qm 1,6 ja 13:10
13:156,5 °C 2,2 °C 2,8 °C 45 % 1019,4 hPa 0,0 mm - 6,5 km/h 16,2 km/h N 573,0 W/qm 1,6 ja 13:15
13:206,7 °C 2,2 °C 2,8 °C 45 % 1019,3 hPa 0,0 mm - 4,7 km/h 14,4 km/h ONO 571,0 W/qm 1,5 ja 13:20
13:256,8 °C 2,2 °C 2,8 °C 48 % 1019,1 hPa 0,0 mm - 4,7 km/h 11,2 km/h NO 568,0 W/qm 1,5 ja 13:25
13:307,1 °C 2,2 °C 2,8 °C 44 % 1018,9 hPa 0,0 mm - 4,7 km/h 14,4 km/h ONO 564,0 W/qm 1,5 ja 13:30
13:357,1 °C 2,2 °C 2,8 °C 42 % 1018,9 hPa 0,0 mm - 3,2 km/h 14,4 km/h NO 561,0 W/qm 1,5 ja 13:35
13:407,0 °C 2,2 °C 2,8 °C 41 % 1018,9 hPa 0,0 mm - 3,2 km/h 14,4 km/h ONO 552,0 W/qm 1,5 ja 13:40
13:457,0 °C 2,2 °C 2,8 °C 41 % 1018,7 hPa 0,0 mm - 4,7 km/h 11,2 km/h SW 555,0 W/qm 1,5 ja 13:45
13:507,7 °C 2,2 °C 2,8 °C 39 % 1018,5 hPa 0,0 mm - 1,4 km/h 11,2 km/h WNW 548,0 W/qm 1,4 ja 13:50
13:557,6 °C 2,2 °C 2,8 °C 41 % 1018,4 hPa 0,0 mm - 1,4 km/h 11,2 km/h NNW 543,0 W/qm 1,4 ja 13:55
UhrzeitTemperaturBoden 10cmBoden 20cmFeuchteLuftdruckNiederschlagEvapotranspirationWindWindböenWindrichtungSolarstrahlungUV-IndexSonne?Uhrzeit
14:007,9 °C 2,2 °C 2,8 °C 41 % 1018,2 hPa 0,0 mm - 1,4 km/h 11,2 km/h W 541,0 W/qm 1,4 ja 14:00
14:058,2 °C 2,2 °C 2,8 °C 40 % 1018,1 hPa 0,0 mm 1,1 mm 1,4 km/h 6,5 km/h NNO 538,0 W/qm 1,4 ja 14:05
14:107,7 °C 2,2 °C 2,8 °C 43 % 1018,2 hPa 0,0 mm 1,1 mm 1,4 km/h 7,9 km/h NO 531,0 W/qm 1,4 ja 14:10
14:157,6 °C 2,2 °C 2,8 °C 44 % 1018,1 hPa 0,0 mm - 3,2 km/h 7,9 km/h ONO 522,0 W/qm 1,3 ja 14:15
14:207,4 °C 2,2 °C 2,8 °C 44 % 1018,1 hPa 0,0 mm - 4,7 km/h 7,9 km/h NNW 510,0 W/qm 1,3 ja 14:20
14:257,6 °C 2,2 °C 2,8 °C 45 % 1018,1 hPa 0,0 mm - 4,7 km/h 7,9 km/h NO 497,0 W/qm 1,2 ja 14:25
14:307,4 °C 2,2 °C 2,8 °C 44 % 1018,0 hPa 0,0 mm - 4,7 km/h 11,2 km/h O 497,0 W/qm 1,2 ja 14:30
14:357,7 °C 2,8 °C 2,8 °C 44 % 1018,1 hPa 0,0 mm - 4,7 km/h 11,2 km/h ONO 487,0 W/qm 1,2 ja 14:35
14:407,6 °C 2,8 °C 2,8 °C 45 % 1018,0 hPa 0,0 mm - 6,5 km/h 11,2 km/h ONO 478,0 W/qm 1,1 ja 14:40
14:457,7 °C 2,8 °C 2,8 °C 42 % 1018,1 hPa 0,0 mm - 4,7 km/h 14,4 km/h ONO 468,0 W/qm 1,1 ja 14:45
14:507,8 °C 2,8 °C 2,8 °C 44 % 1018,1 hPa 0,0 mm - 3,2 km/h 14,4 km/h ONO 459,0 W/qm 1,0 ja 14:50
14:557,8 °C 2,8 °C 2,8 °C 41 % 1018,0 hPa 0,0 mm - 3,2 km/h 14,4 km/h NO 448,0 W/qm 1,0 ja 14:55
15:007,7 °C 2,8 °C 2,8 °C 43 % 1018,1 hPa 0,0 mm - 6,5 km/h 11,2 km/h NO 438,0 W/qm 0,9 ja 15:00
15:057,5 °C 2,8 °C 2,8 °C 42 % 1018,0 hPa 0,0 mm 1,3 mm 7,9 km/h 14,4 km/h ONO 432,0 W/qm 0,9 ja 15:05
15:107,5 °C 2,8 °C 2,8 °C 42 % 1018,0 hPa 0,0 mm 1,3 mm 6,5 km/h 14,4 km/h NNO 422,0 W/qm 0,9 ja 15:10
15:157,6 °C 2,8 °C 2,8 °C 40 % 1018,0 hPa 0,0 mm - 4,7 km/h 14,4 km/h O 410,0 W/qm 0,8 ja 15:15
15:207,6 °C 2,8 °C 2,8 °C 38 % 1017,9 hPa 0,0 mm - 3,2 km/h 14,4 km/h N 396,0 W/qm 0,8 ja 15:20
15:257,7 °C 2,8 °C 2,8 °C 38 % 1017,9 hPa 0,0 mm - 3,2 km/h 13,0 km/h ONO 385,0 W/qm 0,8 ja 15:25
15:307,7 °C 2,8 °C 2,8 °C 43 % 1017,8 hPa 0,0 mm - 3,2 km/h 11,2 km/h NO 376,0 W/qm 0,7 ja 15:30
15:357,6 °C 2,8 °C 2,8 °C 39 % 1017,8 hPa 0,0 mm - 4,7 km/h 9,7 km/h NNW 364,0 W/qm 0,7 ja 15:35
15:407,6 °C 2,8 °C 2,8 °C 39 % 1017,9 hPa 0,0 mm - 4,7 km/h 9,7 km/h ONO 350,0 W/qm 0,7 ja 15:40
15:457,6 °C 2,8 °C 2,8 °C 36 % 1017,9 hPa 0,0 mm - 3,2 km/h 9,7 km/h SO 338,0 W/qm 0,6 ja 15:45
15:507,7 °C 2,8 °C 2,8 °C 36 % 1017,8 hPa 0,0 mm - 3,2 km/h 9,7 km/h NO 325,0 W/qm 0,6 ja 15:50
15:557,7 °C 2,8 °C 2,8 °C 35 % 1017,8 hPa 0,0 mm - 4,7 km/h 7,9 km/h ONO 309,0 W/qm 0,5 ja 15:55
UhrzeitTemperaturBoden 10cmBoden 20cmFeuchteLuftdruckNiederschlagEvapotranspirationWindWindböenWindrichtungSolarstrahlungUV-IndexSonne?Uhrzeit
16:007,6 °C 2,8 °C 2,8 °C 38 % 1017,8 hPa 0,0 mm - 6,5 km/h 13,0 km/h NNW 301,0 W/qm 0,5 ja 16:00
16:057,4 °C 2,8 °C 2,8 °C 39 % 1017,7 hPa 0,0 mm 1,5 mm 6,5 km/h 14,4 km/h NO 281,0 W/qm 0,5 ja 16:05
16:107,3 °C 2,8 °C 2,8 °C 37 % 1017,6 hPa 0,0 mm 1,5 mm 4,7 km/h 14,4 km/h ONO 264,0 W/qm 0,0 ja 16:10
16:157,3 °C 2,8 °C 2,8 °C 37 % 1017,6 hPa 0,0 mm - 4,7 km/h 16,2 km/h NO 246,0 W/qm 0,0 ja 16:15
16:207,1 °C 2,8 °C 2,8 °C 40 % 1017,7 hPa 0,0 mm - 4,7 km/h 16,2 km/h NO 230,0 W/qm 0,0 ja 16:20
16:257,2 °C 2,8 °C 2,8 °C 39 % 1017,7 hPa 0,0 mm - 7,9 km/h 16,2 km/h ONO 216,0 W/qm 0,0 ja 16:25
16:307,1 °C 2,8 °C 2,8 °C 37 % 1017,6 hPa 0,0 mm - 6,5 km/h 20,9 km/h NNO 200,0 W/qm 0,0 nein 16:30
16:356,9 °C 2,8 °C 2,8 °C 39 % 1017,7 hPa 0,0 mm - 4,7 km/h 20,9 km/h NO 188,0 W/qm 0,0 nein 16:35
16:406,7 °C 2,8 °C 2,8 °C 39 % 1017,7 hPa 0,0 mm - 4,7 km/h 20,9 km/h NO 171,0 W/qm 0,0 nein 16:40
16:456,8 °C 2,8 °C 2,8 °C 38 % 1017,8 hPa 0,0 mm - 6,5 km/h 16,2 km/h NO 155,0 W/qm 0,0 nein 16:45
16:506,7 °C 2,8 °C 2,8 °C 38 % 1017,7 hPa 0,0 mm - 6,5 km/h 16,2 km/h O 137,0 W/qm 0,0 nein 16:50
16:556,5 °C 3,3 °C 2,8 °C 38 % 1017,9 hPa 0,0 mm - 4,7 km/h 16,2 km/h ONO 47,0 W/qm 0,0 nein 16:55
17:006,4 °C 3,3 °C 3,3 °C 40 % 1017,9 hPa 0,0 mm - 4,7 km/h 14,4 km/h NW 39,0 W/qm 0,0 nein 17:00
17:056,3 °C 3,3 °C 3,3 °C 40 % 1017,9 hPa 0,0 mm 1,6 mm 4,7 km/h 13,0 km/h ONO 35,0 W/qm 0,0 nein 17:05
17:106,1 °C 3,3 °C 3,3 °C 40 % 1017,9 hPa 0,0 mm 1,6 mm 4,7 km/h 13,0 km/h NW 42,0 W/qm 0,0 nein 17:10
17:156,1 °C 3,3 °C 3,3 °C 42 % 1017,9 hPa 0,0 mm - 3,2 km/h 11,2 km/h NO 33,0 W/qm 0,0 nein 17:15
17:205,7 °C 3,3 °C 3,3 °C 43 % 1018,1 hPa 0,0 mm - 3,2 km/h 11,2 km/h ONO 28,0 W/qm 0,0 nein 17:20
17:255,6 °C 3,3 °C 3,3 °C 43 % 1018,1 hPa 0,0 mm - 3,2 km/h 11,2 km/h NO 26,0 W/qm 0,0 nein 17:25
17:305,4 °C 3,3 °C 3,3 °C 45 % 1018,1 hPa 0,0 mm - 3,2 km/h 11,2 km/h NNW 23,0 W/qm 0,0 nein 17:30
17:355,2 °C 3,3 °C 3,3 °C 45 % 1018,1 hPa 0,0 mm - 3,2 km/h 11,2 km/h NO 21,0 W/qm 0,0 nein 17:35
17:405,1 °C 3,3 °C 3,3 °C 45 % 1018,3 hPa 0,0 mm - 1,4 km/h 7,9 km/h NO 18,0 W/qm 0,0 nein 17:40
17:454,6 °C 2,8 °C 3,3 °C 47 % 1018,3 hPa 0,0 mm - 0,0 km/h 7,9 km/h ONO 16,0 W/qm 0,0 nein 17:45
17:504,2 °C 2,8 °C 3,3 °C 48 % 1018,4 hPa 0,0 mm - 0,0 km/h 4,7 km/h N 12,0 W/qm 0,0 nein 17:50
17:553,9 °C 2,8 °C 3,3 °C 49 % 1018,4 hPa 0,0 mm - 0,0 km/h 4,7 km/h N 11,0 W/qm 0,0 nein 17:55
UhrzeitTemperaturBoden 10cmBoden 20cmFeuchteLuftdruckNiederschlagEvapotranspirationWindWindböenWindrichtungSolarstrahlungUV-IndexSonne?Uhrzeit
18:003,6 °C 2,8 °C 3,3 °C 50 % 1018,7 hPa 0,0 mm - 0,0 km/h 4,7 km/h ONO 7,0 W/qm 0,0 nein 18:00
18:053,3 °C 2,8 °C 3,3 °C 50 % 1018,7 hPa 0,0 mm 1,7 mm 0,0 km/h 4,7 km/h N 5,0 W/qm 0,0 nein 18:05
18:102,9 °C 2,8 °C 3,3 °C 51 % 1018,8 hPa 0,0 mm 1,7 mm 0,0 km/h 3,2 km/h N 0,0 W/qm 0,0 nein 18:10
18:152,3 °C 2,8 °C 3,3 °C 54 % 1019,0 hPa 0,0 mm - 0,0 km/h 3,2 km/h N 0,0 W/qm 0,0 nein 18:15
18:201,9 °C 2,8 °C 3,3 °C 55 % 1019,0 hPa 0,0 mm - 0,0 km/h 1,4 km/h N 0,0 W/qm 0,0 nein 18:20
18:251,7 °C 2,8 °C 3,3 °C 58 % 1019,2 hPa 0,0 mm - 0,0 km/h 0,0 km/h N 0,0 W/qm 0,0 nein 18:25
18:301,4 °C 2,8 °C 3,3 °C 59 % 1019,2 hPa 0,0 mm - 0,0 km/h 0,0 km/h N 0,0 W/qm 0,0 nein 18:30
18:351,3 °C 2,8 °C 3,3 °C 58 % 1019,3 hPa 0,0 mm - 0,0 km/h 1,4 km/h N 0,0 W/qm 0,0 nein 18:35
18:401,3 °C 2,8 °C 3,3 °C 59 % 1019,4 hPa 0,0 mm - 0,0 km/h 3,2 km/h NO 0,0 W/qm 0,0 nein 18:40
18:450,9 °C 2,8 °C 3,3 °C 62 % 1019,4 hPa 0,0 mm - 0,0 km/h 3,2 km/h NO 0,0 W/qm 0,0 nein 18:45
18:500,9 °C 2,8 °C 3,3 °C 63 % 1019,5 hPa 0,0 mm - 0,0 km/h 4,7 km/h O 0,0 W/qm 0,0 nein 18:50
18:551,1 °C 2,8 °C 3,3 °C 62 % 1019,6 hPa 0,0 mm - 0,0 km/h 4,7 km/h NO 0,0 W/qm 0,0 nein 18:55
19:000,9 °C 2,8 °C 3,3 °C 63 % 1019,7 hPa 0,0 mm - 0,0 km/h 4,7 km/h NO 0,0 W/qm 0,0 nein 19:00
19:051,0 °C 2,8 °C 3,3 °C 64 % 1019,7 hPa 0,0 mm 1,7 mm 1,4 km/h 4,7 km/h ONO 0,0 W/qm 0,0 nein 19:05
19:101,2 °C 2,8 °C 3,3 °C 64 % 1019,7 hPa 0,0 mm 1,7 mm 3,2 km/h 7,9 km/h NO 0,0 W/qm 0,0 nein 19:10
19:151,4 °C 2,8 °C 3,3 °C 63 % 1019,7 hPa 0,0 mm - 4,7 km/h 11,2 km/h NNO 0,0 W/qm 0,0 nein 19:15
19:201,6 °C 2,8 °C 3,3 °C 62 % 1019,8 hPa 0,0 mm - 3,2 km/h 11,2 km/h NO 0,0 W/qm 0,0 nein 19:20
19:251,5 °C 2,8 °C 3,3 °C 63 % 1019,8 hPa 0,0 mm - 3,2 km/h 11,2 km/h NO 0,0 W/qm 0,0 nein 19:25
19:301,2 °C 2,8 °C 3,3 °C 64 % 1020,0 hPa 0,0 mm - 3,2 km/h 11,2 km/h NO 0,0 W/qm 0,0 nein 19:30
19:350,9 °C 2,8 °C 3,3 °C 65 % 1020,0 hPa 0,0 mm - 1,4 km/h 7,9 km/h NO 0,0 W/qm 0,0 nein 19:35
19:400,9 °C 2,8 °C 3,3 °C 65 % 1020,0 hPa 0,0 mm - 1,4 km/h 6,5 km/h NO 0,0 W/qm 0,0 nein 19:40
19:450,8 °C 2,8 °C 3,3 °C 65 % 1020,0 hPa 0,0 mm - 1,4 km/h 6,5 km/h NO 0,0 W/qm 0,0 nein 19:45
19:500,6 °C 2,8 °C 3,3 °C 66 % 1020,2 hPa 0,0 mm - 1,4 km/h 6,5 km/h NO 0,0 W/qm 0,0 nein 19:50
19:550,6 °C 2,8 °C 3,3 °C 66 % 1020,2 hPa 0,0 mm - 1,4 km/h 6,5 km/h NO 0,0 W/qm 0,0 nein 19:55
UhrzeitTemperaturBoden 10cmBoden 20cmFeuchteLuftdruckNiederschlagEvapotranspirationWindWindböenWindrichtungSolarstrahlungUV-IndexSonne?Uhrzeit
20:000,6 °C 2,8 °C 3,3 °C 67 % 1020,2 hPa 0,0 mm - 1,4 km/h 4,7 km/h NO 0,0 W/qm 0,0 nein 20:00
20:050,6 °C 2,8 °C 3,3 °C 67 % 1020,2 hPa 0,0 mm 1,7 mm 1,4 km/h 6,5 km/h NO 0,0 W/qm 0,0 nein 20:05
20:100,4 °C 2,8 °C 3,3 °C 68 % 1020,3 hPa 0,0 mm 1,7 mm 3,2 km/h 6,5 km/h NO 0,0 W/qm 0,0 nein 20:10
20:150,4 °C 2,8 °C 3,3 °C 69 % 1020,3 hPa 0,0 mm - 3,2 km/h 7,9 km/h NO 0,0 W/qm 0,0 nein 20:15
20:200,5 °C 2,8 °C 3,3 °C 69 % 1020,3 hPa 0,0 mm - 4,7 km/h 7,9 km/h NO 0,0 W/qm 0,0 nein 20:20
20:250,7 °C 2,8 °C 3,3 °C 68 % 1020,5 hPa 0,0 mm - 4,7 km/h 7,9 km/h NO 0,0 W/qm 0,0 nein 20:25
20:300,6 °C 2,8 °C 3,3 °C 68 % 1020,5 hPa 0,0 mm - 4,7 km/h 9,7 km/h ONO 0,0 W/qm 0,0 nein 20:30
20:350,3 °C 2,8 °C 3,3 °C 69 % 1020,6 hPa 0,0 mm - 3,2 km/h 9,7 km/h NO 0,0 W/qm 0,0 nein 20:35
20:40-0,1 °C 2,8 °C 3,3 °C 71 % 1020,7 hPa 0,0 mm - 3,2 km/h 9,7 km/h NO 0,0 W/qm 0,0 nein 20:40
20:45-0,3 °C 2,8 °C 3,3 °C 72 % 1020,7 hPa 0,0 mm - 3,2 km/h 7,9 km/h NO 0,0 W/qm 0,0 nein 20:45
20:50-0,5 °C 2,8 °C 3,3 °C 72 % 1020,6 hPa 0,0 mm - 3,2 km/h 6,5 km/h ONO 0,0 W/qm 0,0 nein 20:50
20:55-0,8 °C 2,8 °C 3,3 °C 74 % 1020,8 hPa 0,0 mm - 1,4 km/h 6,5 km/h NO 0,0 W/qm 0,0 nein 20:55
21:00-1,1 °C 2,8 °C 3,3 °C 75 % 1020,9 hPa 0,0 mm - 0,0 km/h 6,5 km/h ONO 0,0 W/qm 0,0 nein 21:00
21:05-1,2 °C 2,8 °C 3,3 °C 76 % 1021,1 hPa 0,0 mm 1,7 mm 1,4 km/h 4,7 km/h NO 0,0 W/qm 0,0 nein 21:05
21:10-1,3 °C 2,8 °C 3,3 °C 77 % 1021,1 hPa 0,0 mm 1,7 mm 1,4 km/h 4,7 km/h ONO 0,0 W/qm 0,0 nein 21:10
21:15-1,4 °C 2,8 °C 3,3 °C 77 % 1021,1 hPa 0,0 mm - 1,4 km/h 4,7 km/h ONO 0,0 W/qm 0,0 nein 21:15
21:20-1,4 °C 2,8 °C 3,3 °C 78 % 1021,2 hPa 0,0 mm - 1,4 km/h 4,7 km/h NO 0,0 W/qm 0,0 nein 21:20
21:25-1,2 °C 2,8 °C 3,3 °C 77 % 1021,2 hPa 0,0 mm - 1,4 km/h 4,7 km/h NO 0,0 W/qm 0,0 nein 21:25
21:30-1,4 °C 2,8 °C 3,3 °C 77 % 1021,2 hPa 0,0 mm - 1,4 km/h 6,5 km/h NO 0,0 W/qm 0,0 nein 21:30
21:35-1,2 °C 2,8 °C 3,3 °C 78 % 1021,2 hPa 0,0 mm - 1,4 km/h 6,5 km/h NO 0,0 W/qm 0,0 nein 21:35
21:40-0,7 °C 2,8 °C 3,3 °C 76 % 1021,2 hPa 0,0 mm - 1,4 km/h 6,5 km/h ONO 0,0 W/qm 0,0 nein 21:40
21:45-0,7 °C 2,8 °C 3,3 °C 75 % 1021,2 hPa 0,0 mm - 1,4 km/h 6,5 km/h NO 0,0 W/qm 0,0 nein 21:45
21:50-1,4 °C 2,8 °C 3,3 °C 76 % 1021,3 hPa 0,0 mm - 0,0 km/h 4,7 km/h NO 0,0 W/qm 0,0 nein 21:50
21:55-1,8 °C 2,8 °C 3,3 °C 78 % 1021,5 hPa 0,0 mm - 0,0 km/h 4,7 km/h NO 0,0 W/qm 0,0 nein 21:55
UhrzeitTemperaturBoden 10cmBoden 20cmFeuchteLuftdruckNiederschlagEvapotranspirationWindWindböenWindrichtungSolarstrahlungUV-IndexSonne?Uhrzeit
22:00-2,2 °C 2,8 °C 3,3 °C 79 % 1021,5 hPa 0,0 mm - 0,0 km/h 4,7 km/h NO 0,0 W/qm 0,0 nein 22:00
22:05-2,4 °C 2,8 °C 3,3 °C 80 % 1021,5 hPa 0,0 mm 1,7 mm 0,0 km/h 3,2 km/h N 0,0 W/qm 0,0 nein 22:05
22:10-2,4 °C 2,8 °C 3,3 °C 81 % 1021,5 hPa 0,0 mm 1,7 mm 0,0 km/h 1,4 km/h NNO 0,0 W/qm 0,0 nein 22:10
22:15-2,5 °C 2,8 °C 3,3 °C 81 % 1021,6 hPa 0,0 mm - 0,0 km/h 1,4 km/h NNO 0,0 W/qm 0,0 nein 22:15
22:20-2,4 °C 2,8 °C 3,3 °C 82 % 1021,5 hPa 0,0 mm - 0,0 km/h 3,2 km/h NNW 0,0 W/qm 0,0 nein 22:20
22:25-2,4 °C 2,8 °C 3,3 °C 82 % 1021,5 hPa 0,0 mm - 0,0 km/h 3,2 km/h NNO 0,0 W/qm 0,0 nein 22:25
22:30-2,6 °C 2,8 °C 3,3 °C 81 % 1021,6 hPa 0,0 mm - 0,0 km/h 3,2 km/h NNO 0,0 W/qm 0,0 nein 22:30
22:35-2,6 °C 2,8 °C 3,3 °C 82 % 1021,6 hPa 0,0 mm - 0,0 km/h 3,2 km/h NNO 0,0 W/qm 0,0 nein 22:35
22:40-2,7 °C 2,8 °C 3,3 °C 82 % 1021,6 hPa 0,0 mm - 0,0 km/h 3,2 km/h NNO 0,0 W/qm 0,0 nein 22:40
22:45-2,7 °C 2,8 °C 3,3 °C 82 % 1021,7 hPa 0,0 mm - 0,0 km/h 0,0 km/h NNO 0,0 W/qm 0,0 nein 22:45
22:50-2,5 °C 2,8 °C 3,3 °C 81 % 1021,7 hPa 0,0 mm - 0,0 km/h 3,2 km/h NNO 0,0 W/qm 0,0 nein 22:50
22:55-2,7 °C 2,8 °C 3,3 °C 81 % 1021,8 hPa 0,0 mm - 0,0 km/h 3,2 km/h NNO 0,0 W/qm 0,0 nein 22:55
23:00-2,7 °C 2,8 °C 3,3 °C 82 % 1021,7 hPa 0,0 mm - 0,0 km/h 3,2 km/h NNO 0,0 W/qm 0,0 nein 23:00
23:05-2,8 °C 2,2 °C 3,3 °C 82 % 1021,7 hPa 0,0 mm 1,7 mm 0,0 km/h 0,0 km/h NNO 0,0 W/qm 0,0 nein 23:05
23:10-2,9 °C 2,2 °C 3,3 °C 82 % 1021,7 hPa 0,0 mm 1,7 mm 0,0 km/h 0,0 km/h NNO 0,0 W/qm 0,0 nein 23:10
23:15-3,1 °C 2,2 °C 3,3 °C 82 % 1021,8 hPa 0,0 mm - 0,0 km/h 0,0 km/h NNO 0,0 W/qm 0,0 nein 23:15
23:20-3,2 °C 2,2 °C 3,3 °C 83 % 1021,9 hPa 0,0 mm - 0,0 km/h 0,0 km/h NNO 0,0 W/qm 0,0 nein 23:20
23:25-3,3 °C 2,2 °C 3,3 °C 83 % 1021,9 hPa 0,0 mm - 0,0 km/h 1,4 km/h NNO 0,0 W/qm 0,0 nein 23:25
23:30-3,2 °C 2,2 °C 3,3 °C 83 % 1022,0 hPa 0,0 mm - 0,0 km/h 1,4 km/h NNO 0,0 W/qm 0,0 nein 23:30
23:35-3,3 °C 2,2 °C 3,3 °C 83 % 1022,0 hPa 0,0 mm - 0,0 km/h 1,4 km/h NNO 0,0 W/qm 0,0 nein 23:35
23:40-3,3 °C 2,2 °C 3,3 °C 83 % 1022,0 hPa 0,0 mm - 0,0 km/h 1,4 km/h NNO 0,0 W/qm 0,0 nein 23:40
23:45-3,4 °C 2,2 °C 3,3 °C 83 % 1022,1 hPa 0,0 mm - 0,0 km/h 1,4 km/h NNO 0,0 W/qm 0,0 nein 23:45
23:50-3,5 °C 2,2 °C 3,3 °C 83 % 1022,3 hPa 0,0 mm - 0,0 km/h 1,4 km/h NNO 0,0 W/qm 0,0 nein 23:50
23:55-3,6 °C 2,2 °C 3,3 °C 83 % 1022,4 hPa 0,0 mm - 0,0 km/h 1,4 km/h NNO 0,0 W/qm 0,0 nein 23:55
Gesamt: -0,7 °C 2,2 °C 3,0 °C 72 % 1021,4 hPa 0,0 mm 34,4 mm 1,7 km/h 5,2 km/h 0 156,2 W/qm 0,4 ja

Insgesamt 288 Zeilen mal 13 Spalten = 3744 Werte werden angezeigt.

www.wetter-rosstal.de   •   www.wetter-franken.de   •   www.lightningmaps.org   •   Start   •   Kontakt / Datenschutz   •   PC-Kümmerer